Weather in Coimbra

Portugal     40°12′19″N   8°25′57″W
temp.,
°C
wind,
m/s
gust,
m/s
humid.,
%
clouds,
%
prec.,
mm/h
press.,
hPa
HPBL,
m
23 june, wed
wed2301:00+13n11925 0.0 102016
04:00+11nne11940 0.0 102015
07:00+12nne12860 0.0 102060
10:00+21ne46472 0.0 1020979
13:00+25n34350 0.0 10191916
16:00+24nw66435 0.0 10181281
19:00+21nnw47470 0.0 1019578
22:00+14nw12855 0.0 102057
24 june, thu
thu2401:00+12ese11894 0.0 101911
04:00+12ene22770 0.0 101923
07:00+12ene36694 0.0 1019117
10:00+21ene454245 0.0 1019487
13:00+28nne23281 0.0 10181961
16:00+30nnw54250 0.0 10171937
19:00+25nnw48420 0.0 1017476
22:00+16nnw11681 0.0 101912
25 june, fri
fri2501:00+16ene12705 0.0 101811
04:00+15ene226627 0.0 101720
07:00+15e226450 0.0 101744
10:00+25e223823 0.0 1017347
13:00+32wnw22235 0.0 10161435
16:00+32wnw54261 0.0 10151333
19:00+26nw34371 0.0 1015422
22:00+17nw11690 0.0 101611
26 june, sat
sat2601:00+15n11752 0.0 101611
04:00+14sw11810 0.0 101510
07:00+15s11820 0.0 101613
10:00+23wsw22510 0.0 1016528
13:00+28w44330 0.0 10151185
16:00+26w55390 0.0 1016940
19:00+21nw45590 0.0 1016549
22:00+14nw279618 0.0 1018259
27 june, sun
sun2701:00+15nw259364 0.0 1018297
04:00+14nnw2495100 0.0 1018158
07:00+14nnw289414 0.0 1019333
10:00+19nnw57580 0.0 1019849
13:00+21nw67350 0.0 10201013
16:00+21nw67410 0.0 10201051
19:00+18nnw68560 0.0 1020842
22:00+13nnw410820 0.0 1021420